Wind_Speed
16 15 14 13 12 12 11 11 10 10 9 9 9 8 8 8 8 8 8 8 8 8 8 8 8 8 8 8 8 8 8 9 9 9 9 9 9 9 9 9 9 9 9
17 17 16 15 14 13 13 12 12 12 11 11 11 10 10 10 10 10 10 9 9 9 9 10 9 9 9 9 10 10 10 10 10 10 10 10 10 11 11 11 11 11 11
19 18 18 16 16 15 15 14 14 13 13 13 12 12 12 12 11 11 11 11 11 11 11 11 11 11 11 11 11 11 11 11 12 12 12 12 12 12 12 12 12 13 13
21 20 19 18 18 17 16 16 15 15 15 14 14 13 13 13 13 13 13 13 13 12 12 12 12 12 12 12 12 13 13 13 13 14 14 14 14 14 14 14 14 14 14
22 21 21 20 19 18 18 17 17 16 16 16 15 15 15 15 15 15 15 15 14 14 14 14 14 14 14 14 14 14 14 14 15 15 15 16 16 16 16 16 16 16 16
23 22 22 21 20 20 19 19 18 18 18 18 17 17 17 17 16 16 16 16 16 16 16 16 16 16 16 16 16 16 16 16 16 16 16 17 17 18 18 18 18 19 18
24 23 22 22 21 21 21 20 20 20 20 20 19 19 19 19 18 18 18 18 18 19 18 18 18 18 18 18 19 18 18 18 18 18 18 19 19 19 20 20 20 20 20
25 24 24 23 23 23 22 22 22 21 21 21 21 21 21 21 21 21 21 21 21 21 21 21 21 21 21 21 21 21 20 20 20 20 20 20 21 21 21 21 21 21 21
26 25 25 24 24 24 24 24 24 23 23 23 23 23 23 23 23 23 24 23 23 23 23 23 23 23 23 23 23 23 22 22 22 22 22 22 22 22 22 23 23 23 23
27 26 26 25 25 25 25 25 25 25 25 25 25 25 25 25 25 25 25 26 26 26 26 25 25 25 25 24 24 24 24 24 24 24 24 24 24 24 24 25 24 24 24
29 28 28 27 27 27 27 27 27 27 27 27 27 27 27 27 27 27 27 27 28 28 28 27 27 27 27 26 26 26 26 25 25 25 26 26 26 26 26 26 26 26 26
30 29 29 29 29 28 28 28 28 29 29 29 29 29 29 28 29 29 28 28 28 29 29 29 29 28 28 28 28 28 28 28 27 27 27 27 27 28 28 28 28 28 28
31 30 30 30 30 30 30 30 30 30 30 30 30 30 30 30 30 30 29 29 30 30 30 31 31 30 31 31 31 30 30 31 30 30 30 30 30 30 30 30 30 30 31
31 31 31 31 31 31 31 31 31 31 31 31 31 31 31 31 31 31 31 32 31 31 31 31 32 33 33 33 33 33 33 33 33 33 33 33 33 32 32 32 32 32 32
32 32 32 32 32 32 32 32 31 32 32 32 32 32 32 32 32 33 33 33 33 33 33 33 33 34 34 35 34 34 35 35 35 35 35 35 35 35 34 34 34 34 34
32 32 32 32 32 32 32 32 32 32 33 33 33 33 33 33 33 33 33 34 35 35 35 35 35 35 35 36 36 36 36 36 36 36 37 37 37 37 36 36 37 36 36
32 32 32 32 32 32 32 33 33 32 33 33 33 33 33 33 34 35 35 36 36 36 37 37 37 37 37 38 38 37 37 38 37 38 38 38 38 38 39 39 39 39 38
32 32 32 32 32 32 33 33 33 32 32 32 33 34 34 35 35 36 36 37 37 37 38 39 39 38 38 39 39 39 39 39 39 40 39 39 39 40 41 41 41 41 40
32 32 32 32 32 33 33 33 33 34 34 33 34 35 35 36 36 37 38 38 39 39 39 40 41 40 39 39 40 41 41 41 41 42 41 42 41 41 42 42 42 42 42
31 31 32 32 32 33 33 33 33 33 34 35 35 35 36 36 36 37 38 39 40 40 40 40 40 41 40 41 41 41 41 42 43 43 43 44 43 43 44 44 44 43 43
31 31 32 32 32 32 32 32 33 34 34 35 35 36 36 36 37 38 38 39 40 40 40 40 39 40 40 41 41 41 42 43 43 44 45 44 44 44 45 45 46 45 45
31 31 32 32 32 32 32 33 33 34 34 35 35 35 36 37 38 39 39 38 39 40 39 40 40 40 41 41 41 42 42 41 42 43 44 44 45 45 45 45 46 46 46
31 31 32 32 32 32 32 33 33 34 34 35 35 36 36 37 37 38 39 39 39 40 40 40 40 41 42 41 41 42 41 41 40 41 43 43 44 44 44 44 45 46 46
30 30 30 30 31 31 32 32 33 33 33 34 34 34 35 35 36 37 38 38 38 39 40 40 40 41 42 42 42 42 42 41 41 40 41 42 43 44 44 43 44 45 45
31 31 31 31 31 32 32 32 32 32 33 33 33 33 34 34 35 36 37 37 37 38 39 39 40 40 41 41 42 42 42 42 42 41 40 39 40 42 43 43 44 44 44
32 32 32 32 32 32 31 32 32 32 32 33 33 34 34 35 35 35 36 37 37 38 38 39 39 39 40 40 41 41 41 41 42 42 41 41 41 41 42 43 42 43 43
Wind_Direction
235 238 240 244 246 248 251 253 254 254 256 258 259 261 262 264 264 264 264 265 266 265 265 267 266 266 266 266 265 264 261 260 260 261 264 265 266 268 269 270 270 270 273
235 239 242 245 247 248 250 252 254 255 257 259 262 265 265 266 267 268 268 266 267 269 269 269 270 269 268 268 268 268 266 264 264 264 266 268 269 270 270 271 271 271 272
236 239 242 245 247 249 251 253 255 257 258 260 263 265 267 267 267 268 269 270 270 270 272 273 272 271 271 270 271 271 270 268 267 267 268 269 269 270 270 270 271 272 273
238 240 243 246 248 250 251 253 255 257 259 260 262 265 267 268 268 268 269 270 272 272 272 274 275 274 273 272 272 273 272 270 270 269 269 269 269 269 270 270 271 273 275
238 240 244 246 249 251 252 253 255 257 258 260 262 264 266 268 269 269 269 270 271 272 272 273 274 275 275 273 272 273 273 273 272 270 270 270 269 269 270 271 272 273 275
238 241 244 247 249 252 253 254 256 258 260 261 263 264 266 267 268 270 270 270 270 271 271 272 273 274 274 275 274 273 273 274 273 273 272 271 272 271 272 272 273 273 274
241 242 244 246 249 252 254 256 257 259 261 262 264 265 266 267 268 269 270 270 271 271 272 272 273 274 275 275 275 274 274 273 273 273 273 273 272 272 273 273 274 274 275
242 245 246 248 250 252 254 256 258 260 261 263 264 266 266 267 268 269 270 271 271 272 272 273 273 272 273 274 274 274 274 274 273 273 273 273 273 274 274 274 274 275 276
243 245 246 249 251 253 255 257 259 260 262 264 265 267 267 267 268 269 270 270 271 271 272 272 273 272 272 273 273 274 274 274 273 272 272 273 273 273 274 275 275 275 276
243 245 247 250 253 254 256 257 260 262 263 265 266 268 269 270 270 270 271 271 271 271 272 272 272 272 273 273 273 274 274 274 274 273 273 273 273 273 273 274 274 275 276
245 247 249 252 254 255 257 259 261 263 265 266 268 269 270 271 271 272 272 273 272 271 271 272 272 273 273 273 273 274 274 275 275 274 274 274 274 273 273 273 273 274 275
246 249 251 253 254 257 259 260 262 264 266 267 268 269 270 270 271 271 272 272 272 272 271 271 272 273 273 274 274 274 274 274 274 274 274 275 275 274 274 274 274 274 275
247 249 251 253 255 258 260 261 263 264 266 267 268 268 269 270 271 271 271 272 273 273 273 272 272 272 273 274 274 273 274 274 274 274 274 274 275 275 275 275 275 275 276
247 250 252 255 257 259 261 262 263 265 266 266 267 268 269 270 271 271 272 273 273 273 274 274 272 272 273 273 273 273 273 274 274 274 275 275 275 275 275 276 276 276 276
248 251 254 255 257 259 261 263 262 263 266 267 268 269 269 270 271 272 273 274 274 274 274 274 274 274 274 274 274 274 275 274 274 274 274 275 274 275 275 275 275 276 276
250 252 254 256 258 260 261 262 262 263 265 266 267 268 269 270 271 273 274 275 275 275 275 275 275 274 274 274 274 274 275 275 275 274 274 274 274 274 274 274 275 276 275
251 253 256 258 259 260 262 263 263 264 265 267 268 270 270 271 272 273 275 276 276 277 276 275 275 275 274 273 274 274 275 275 275 276 275 275 275 274 274 274 274 275 275
252 255 257 259 261 263 264 264 265 265 267 268 269 271 272 272 273 274 275 275 276 276 276 275 275 275 274 274 274 274 275 275 275 276 276 276 276 275 274 273 273 273 274
254 256 259 261 263 264 266 266 267 268 269 271 273 273 274 274 274 275 275 275 276 276 275 275 274 274 274 274 274 274 274 274 275 275 275 276 276 275 275 273 273 272 273
256 257 259 261 264 265 266 267 268 270 272 274 275 276 275 276 276 276 276 276 276 276 275 275 274 273 274 275 275 275 274 273 273 274 275 276 275 275 274 272 272 272 272
257 258 260 262 264 266 267 268 269 271 273 275 276 276 276 276 277 277 277 276 275 276 276 275 276 275 275 274 274 274 275 275 275 276 275 274 274 273 273 273 272 272 272
258 260 261 263 265 267 268 269 271 273 273 275 276 276 277 278 278 278 278 277 276 276 276 276 276 276 276 275 275 274 275 278 278 277 276 274 274 273 273 273 274 273 271
259 260 261 263 264 266 268 270 271 273 273 274 276 277 278 278 278 279 278 278 277 277 276 277 277 276 276 275 276 276 276 277 277 277 277 276 275 274 274 274 274 273 272
260 261 262 263 264 267 269 271 272 273 274 275 276 277 278 279 279 281 280 280 279 279 278 278 279 279 278 276 276 276 277 278 279 278 278 277 276 275 274 274 274 274 273
260 261 262 264 265 268 269 271 272 273 274 276 277 278 278 280 281 282 281 280 280 280 280 279 279 279 279 278 277 278 278 279 280 280 279 277 277 278 277 276 275 273 272
261 262 263 265 267 268 270 271 272 273 274 276 277 278 279 281 282 283 282 281 281 281 281 280 279 279 279 279 279 279 280 280 281 281 280 278 279 280 279 276 275 273 272
Height
5863 5864 5866 5867 5868 5870 5871 5872 5872 5873 5874 5874 5875 5875 5875 5876 5876 5876 5876 5876 5877 5877 5877 5877 5877 5877 5878 5878 5878 5878 5878 5878 5878 5878 5878 5878 5878 5878 5878 5878 5878 5878 5878
5860 5862 5864 5865 5866 5868 5869 5870 5871 5871 5872 5872 5873 5873 5874 5874 5875 5875 5875 5875 5875 5876 5876 5876 5876 5876 5876 5876 5876 5876 5876 5876 5876 5876 5877 5877 5877 5877 5877 5877 5877 5877 5877
5858 5859 5861 5862 5864 5865 5866 5868 5869 5869 5870 5870 5871 5871 5872 5872 5873 5873 5873 5874 5874 5874 5874 5874 5874 5874 5874 5875 5875 5875 5875 5875 5875 5875 5875 5875 5875 5875 5875 5875 5875 5875 5875
5854 5856 5858 5860 5861 5863 5864 5865 5866 5867 5868 5868 5869 5869 5870 5870 5871 5871 5871 5872 5872 5872 5872 5872 5873 5873 5873 5873 5873 5873 5873 5873 5873 5873 5873 5873 5873 5873 5873 5873 5873 5873 5872
5851 5853 5855 5857 5858 5860 5861 5862 5863 5864 5865 5866 5866 5867 5867 5868 5868 5869 5869 5869 5870 5870 5870 5870 5870 5870 5870 5870 5870 5870 5870 5870 5870 5870 5871 5870 5870 5870 5870 5870 5870 5870 5870
5847 5850 5851 5853 5855 5856 5858 5859 5860 5861 5862 5863 5863 5864 5865 5865 5866 5866 5866 5867 5867 5867 5867 5867 5868 5868 5868 5868 5868 5868 5868 5868 5868 5868 5868 5868 5868 5867 5867 5867 5867 5867 5867
5844 5846 5848 5850 5851 5853 5854 5856 5857 5858 5859 5860 5860 5861 5861 5862 5862 5863 5863 5863 5864 5864 5864 5864 5864 5864 5865 5865 5865 5865 5865 5865 5865 5865 5865 5864 5864 5864 5864 5864 5864 5863 5863
5840 5842 5844 5846 5848 5849 5851 5852 5853 5854 5855 5856 5856 5857 5858 5858 5859 5859 5859 5860 5860 5860 5860 5860 5860 5860 5861 5861 5861 5861 5861 5861 5861 5861 5861 5861 5861 5860 5860 5860 5860 5860 5859
5836 5838 5840 5842 5844 5845 5847 5848 5849 5850 5851 5852 5852 5853 5853 5854 5854 5855 5855 5855 5856 5856 5856 5856 5856 5856 5856 5856 5856 5857 5857 5857 5857 5857 5857 5857 5856 5856 5856 5856 5856 5855 5855
5831 5833 5836 5837 5839 5841 5842 5844 5845 5846 5847 5847 5848 5848 5849 5849 5850 5850 5850 5851 5851 5851 5851 5851 5851 5851 5852 5852 5852 5852 5852 5852 5852 5852 5852 5852 5852 5852 5851 5851 5851 5851 5851
5826 5829 5831 5833 5835 5836 5838 5839 5840 5841 5842 5842 5843 5843 5844 5844 5844 5845 5845 5845 5845 5846 5846 5846 5846 5846 5847 5847 5847 5847 5847 5847 5847 5847 5847 5847 5847 5846 5846 5846 5846 5846 5846
5822 5824 5826 5828 5830 5831 5832 5833 5834 5835 5836 5837 5837 5838 5838 5839 5839 5839 5839 5840 5840 5840 5840 5840 5841 5841 5841 5841 5841 5841 5841 5842 5842 5842 5842 5841 5841 5841 5840 5840 5840 5840 5840
5816 5818 5820 5822 5824 5825 5826 5828 5829 5829 5830 5831 5831 5832 5832 5833 5833 5833 5834 5833 5834 5834 5834 5834 5834 5835 5835 5835 5835 5835 5835 5835 5835 5836 5836 5835 5835 5835 5834 5834 5834 5834 5834
5811 5813 5815 5817 5818 5820 5821 5822 5823 5823 5824 5825 5825 5826 5826 5827 5827 5827 5827 5827 5827 5827 5827 5828 5828 5828 5828 5828 5828 5828 5828 5829 5829 5829 5829 5829 5829 5828 5828 5828 5827 5827 5827
5806 5808 5809 5811 5812 5814 5815 5815 5816 5817 5818 5819 5819 5819 5820 5820 5820 5821 5821 5820 5820 5820 5821 5821 5821 5821 5821 5821 5821 5821 5821 5821 5821 5821 5821 5821 5821 5821 5821 5820 5820 5820 5820
5800 5802 5803 5805 5806 5807 5809 5809 5810 5811 5811 5812 5812 5813 5813 5813 5813 5814 5814 5814 5813 5813 5813 5813 5813 5813 5813 5813 5813 5813 5813 5813 5812 5813 5813 5813 5813 5813 5813 5812 5812 5812 5812
5794 5796 5798 5799 5800 5801 5802 5803 5803 5804 5805 5805 5806 5806 5806 5806 5806 5806 5806 5806 5806 5805 5805 5805 5805 5805 5805 5805 5805 5805 5805 5805 5804 5804 5804 5804 5804 5804 5804 5804 5804 5803 5803
5789 5791 5792 5793 5794 5795 5795 5796 5797 5797 5798 5798 5799 5799 5799 5799 5799 5799 5798 5798 5797 5797 5797 5796 5796 5796 5796 5796 5796 5796 5796 5796 5796 5795 5795 5795 5795 5795 5794 5794 5794 5794 5794
5783 5785 5786 5787 5788 5788 5789 5789 5790 5791 5791 5791 5792 5792 5791 5791 5791 5790 5790 5789 5788 5788 5788 5787 5787 5787 5787 5787 5786 5786 5786 5786 5786 5786 5786 5785 5785 5784 5784 5784 5784 5784 5784
5778 5779 5780 5781 5781 5782 5782 5783 5784 5784 5784 5784 5784 5784 5784 5783 5783 5782 5781 5781 5780 5779 5778 5778 5777 5777 5777 5777 5777 5776 5776 5776 5775 5775 5775 5774 5774 5773 5772 5772 5772 5773 5773
5772 5773 5774 5775 5775 5775 5776 5776 5777 5777 5777 5777 5776 5776 5775 5775 5774 5773 5773 5772 5770 5769 5769 5768 5768 5767 5767 5767 5766 5766 5766 5765 5764 5764 5763 5763 5762 5761 5761 5760 5760 5761 5762
5766 5767 5767 5768 5768 5769 5769 5769 5769 5770 5769 5769 5769 5768 5767 5767 5766 5764 5763 5762 5761 5760 5759 5759 5758 5758 5757 5756 5756 5755 5755 5755 5753 5752 5751 5750 5750 5749 5749 5749 5748 5749 5750
5759 5760 5761 5761 5762 5762 5762 5762 5762 5762 5762 5761 5761 5760 5759 5758 5757 5755 5754 5752 5751 5750 5750 5749 5748 5747 5747 5745 5744 5744 5744 5744 5743 5742 5740 5739 5738 5737 5737 5737 5737 5738 5738
5753 5754 5754 5755 5755 5755 5755 5755 5755 5755 5754 5754 5753 5752 5751 5750 5748 5746 5744 5743 5742 5741 5740 5739 5738 5737 5736 5735 5734 5733 5733 5732 5732 5732 5730 5728 5727 5727 5726 5726 5726 5726 5726
5746 5747 5748 5748 5748 5748 5748 5748 5748 5747 5747 5746 5745 5744 5743 5741 5740 5738 5736 5734 5733 5732 5731 5730 5729 5727 5726 5725 5724 5723 5722 5721 5720 5720 5720 5719 5717 5716 5715 5715 5715 5715 5715
5740 5740 5741 5741 5741 5741 5741 5741 5740 5740 5739 5738 5737 5736 5735 5733 5731 5729 5727 5725 5724 5723 5721 5720 5719 5718 5717 5716 5714 5713 5712 5712 5710 5709 5708 5708 5707 5706 5704 5704 5704 5704 5704